Starlink 4473

operational
NORAD ID: 53660 Int'l Des: 2022-105 Owner: SPXS Country: US Constellation: starlink
LEOCIRCULARRETROGRADESSO

关于 Starlink 4473

正在加载描述...

实时位置

正在加载3D地球...

即将过境

高度历史

Altitude vs Time

uPlot chart will show altitude changes over time

两行轨道根数

1 53660U 22105N 25260.12663302 .00000045 00000-0 80700-5 0 9997
2 53660 97.6035 140.2941 0001341 116.5189 243.6173 15.01261741167191
Epoch: Sep 17, 2025 • Age: 13 hours

当前状态

高度 568.5 km
速度 7.58 km/s
星下点 40.09°N, 102.67°W
发射日期 Aug 31, 2022
运行时间 3 years
类型 internet

技术详情

分类 Payload
质量 300.00 kg
干质量 290.00 kg
总质量 300.00 kg
长度 0.20 m
直径 2.80 m
跨度 9.00 m
形状 Box + pan
制造商 SPXS
平台类型 Starlink
阶段状态 In Orbit
所有者/国家 SPXS/US

大型星座

Loading constellations...